Regional Weather Roundup
Issued by NWS

Home | Current Version | Previous Version | Graphics & Text | Print | Product List | Glossary Off
Versions: 1 2 3 4 5 6 7 8 9 10 11 12 13 14 15 16 17 18 19 20 21 22 23 24 25 26 27 28 29 30 31 32 33 34 35 36 37 38 39 40 41 42 43 44 45 46 47 48 49 50

080
ASUS43 KTOP 280808
RWRKS

WEATHER ROUNDUP FOR KANSAS
NATIONAL WEATHER SERVICE GOODLAND KS
300 AM CDT FRI JUL 28 2017

NOTE:  "FAIR" INDICATES FEW OR NO CLOUDS BELOW 12,000 FEET WITH NO
SIGNIFICANT WEATHER AND/OR OBSTRUCTIONS TO VISIBILITY.

KSZ001>006-013>018-027>032-041>047-280900-
NORTHWEST KANSAS

CITY           SKY/WX    TMP DP  RH WIND       PRES   REMARKS
GOODLAND       CLOUDY    66  64  93 SE7       30.11F
HAYS           MOCLDY    67  63  87 NE5       30.04S
HILL CITY      PTCLDY    65  62  90 CALM      30.06S
RUSSELL        MOCLDY    66  63  90 E6        30.01S
$$

KSZ061>065-074>080-084>089-280900-
SOUTHWEST KANSAS

CITY           SKY/WX    TMP DP  RH WIND       PRES   REMARKS
DODGE CITY     PTCLDY    68  66  93 E5        30.04F
GARDEN CITY    PTCLDY    68  65  90 E6        30.05F
GREAT BEND     PTCLDY    71  65  81 NE6       30.03R
LIBERAL        CLOUDY    72  68  87 E6        30.05F
PRATT          CLOUDY    69  64  83 NE6       30.01S
$$

KSZ066>073-081>083-090>101-280900-
SOUTHEAST KANSAS

CITY           SKY/WX    TMP DP  RH WIND       PRES   REMARKS
CHANUTE        CLEAR     78  74  87 N7        29.92F
COFFEYVILLE    PTCLDY    77  75  93 N5        29.90F
HUTCHINSON     PTCLDY    72  67  84 NE6       29.98S
MEDICINE LODGE   N/A     71  67  87 N5        29.97S
NEWTON         CLEAR     72  68  87 NE8       29.99S
PARSONS        FOG       76  74  93 CALM      29.91F VSB 3/4
WICHITA INTL   CLOUDY    77  71  82 NE10      29.95F
WICHITA JABRA  CLOUDY    74  71  91 NE9       29.96S
WICHITA MCCONL CLOUDY    77  69  78 NE8       29.96S
WINFIELD       CLOUDY    77  72  84 N6        29.94F
$$

KSZ007>012-019>026-033>040-048>060-102>105-280900-
NORTHEAST KANSAS

CITY           SKY/WX    TMP DP  RH WIND       PRES   REMARKS
CONCORDIA      CLEAR     67  65  93 CALM      30.01S
EMPORIA        CLOUDY    72  68  87 NE7       29.96S
LAWRENCE       MOCLDY    73  70  90 CALM      29.94F
MANHATTAN      CLEAR     71  65  81 N3        29.97S
MARYSVILLE     CLEAR     64  63  94 N3        30.00S
OLATHE IND     CLEAR     72  70  93 N3        29.96S
OLATHE EXE     CLEAR     73  72  96 N5        29.95S
SALINA         CLOUDY    74  66  76 NE5       30.00R
TOPEKA BILLARD CLEAR     72  69  90 CALM      29.95F
TOPEKA FORBES  CLEAR     72  68  87 CALM      29.96S
$$




USA.gov is the U.S. government's official web portal to all federal, state and local government web resources and services.